Regional Weather Roundup
Issued by NWS

Home | Current Version | Previous Version | Text Only | Print | Product List | Glossary On
Versions: 1 2 3 4 5 6 7 8 9 10 11 12 13 14 15 16 17 18 19 20 21 22 23 24 25 26 27 28 29 30 31 32 33 34 35 36 37 38 39 40 41 42 43 44 45 46 47 48 49 50
658
ASCA44 KEWX 212020
RWRMX

LATIN AMERICA AND CARIBBEAN REGIONAL WEATHER ROUNDUP
NATIONAL WEATHER SERVICE AUSTIN/SAN ANTONIO TX
200 PM CST SAT JAN 21 2017

NOTE: "FAIR" INDICATED FEW OR NO CLOUDS BELOW 12,000 FEET WITH NO
SIGNIFICANT WEATHER AND/OR OBSTRUCTIONS TO VISIBILITY.

BAJA CALIFORNIA

CITY           SKY/WX    TMP DP  RH WIND       PRES   REMARKS
LORETO         PTSUNNY   72  57  60 W23       29.94F
LA PAZ         MOSUNNY   75  48  38 SW8       30.06F
MEXICALI       SUNNY     63  36  36 W26       29.87S
S.J. DEL CABO  MOSUNNY   75  55  50 SE14      30.03F
TIJUANA        PTSUNNY   57  45  62 W14       29.99F

NORTHWESTERN MEXICO

CITY           SKY/WX    TMP DP  RH WIND       PRES   REMARKS
CULIACAN       MOSUNNY   73  50  43 CALM      30.06F
DURANGO        SUNNY     70  14  11 W36       30.01F
GUAYMAS        MOSUNNY   70  54  56 W17       29.91F
HERMOSILLO     PTSUNNY   66  52  59 W15       29.96F
CD. JUAREZ     CLOUDY    46  36  66 W17       29.61F WCI  39
LOS MOCHIS     MOSUNNY   72  46  40 SE15      30.04F
OBREGON        PTSUNNY   61  59  94 SE7       29.96F

NORTHEASTERN MEXICO

CITY           SKY/WX    TMP DP  RH WIND       PRES   REMARKS
CHIHUAHUA      CLOUDY    61  30  31 SW23G40   29.72S
MATAMOROS      MOSUNNY   93  39  15 CALM      29.51F
MONCLOVA         N/A    N/A N/A N/A MISG        N/A
MONTERREY      SUNNY     88  23   9 E8        29.53F
NUEVO LAREDO   SUNNY     91  36  14 SW12      29.46F
PIEDRAS NEGRAS MOSUNNY   86  48  26 SW14G25   29.42F
REYNOSA        MOSUNNY   90  32  12 S2        29.48F
SALTILLO       SUNNY     81  34  18 W25G40    29.80F
TORREON        SUNNY     84  21  10 SW26      29.71F BLWGDUST
CD. VICTORIA   SUNNY     90  45  20 SE9       29.59F

WESTERN MEXICO

CITY           SKY/WX    TMP DP  RH WIND       PRES   REMARKS
AGUASCALIENTES SUNNY     72  16  12 W21       30.15F
COLIMA         MOSUNNY   77  55  47 W14       30.09F
DEL BAJIO      SUNNY     75  28  17 SW9       30.20F
GUADALAJARA    SUNNY     73  27  17 SW9       30.14F
MANZANILLO     SUNNY     79  68  69 SW9       29.94F
MAZATLAN       SUNNY     77  55  47 SW6       30.01F
P. VALLARTA    SUNNY     75  63  64 SW8       30.02F
URUAPAN        MOSUNNY   68  52  56 SE7       30.18F
ZACATECAS      SUNNY     70  21  16 W29G40    30.10F

CENTRAL MEXICO

CITY           SKY/WX    TMP DP  RH WIND       PRES   REMARKS
CUERNAVACA     SUNNY     77  43  29 N3        30.07F
MEXICO CITY    SUNNY     75  16  10 SE8       30.17F
MORELIA        SUNNY     73  41  31 S9        30.16F
POZA RICA      SUNNY     95  68  41 SE7       29.68F HX  99
PUEBLA         SUNNY     66  37  34 S10       30.22F
QUERETARO      SUNNY     72  25  17 W29       30.18F
S. LUIS POTOSI SUNNY     75  10   8 SW15      30.05F
TAMPICO        SUNNY     95  45  17 SW16      29.59F HX  91
TOLUCA         SUNNY     68  25  19 W10       30.27F

SOUTHERN MEXICO

CITY           SKY/WX    TMP DP  RH WIND       PRES   REMARKS
ACAPULCO       MOSUNNY   82  70  65 W12       29.91F
B. DE HUATULCO SUNNY     88  72  58 W35       29.90F HX  94
OAXACA         SUNNY     81  34  18 SW7       30.07F
P. ESCONDIDO   SUNNY     82  72  69 W29       29.97F
VERACRUZ       SUNNY     93  68  43 S12       29.65F HX  97
ZIHUATANEJO    MOSUNNY   88  73  62 SW6       29.95F HX  96

YUCATAN PENINSULA

CITY           SKY/WX    TMP DP  RH WIND       PRES   REMARKS
CAMPECHE       SUNNY     95  64  36 S12G23    29.69F HX  97
CANCUN         PTSUNNY   84  73  70 SE15      29.80F HX  91
CHETUMAL       SUNNY     88  73  62 SE15      29.76F HX  96
CD. DEL CARMEN SUNNY     88  70  55 SE5       29.72F HX  92
COZUMEL        PTSUNNY   84  72  65 SE10      29.79F
MERIDA         MOSUNNY   95  66  38 E14       29.70F HX  98
MINATITLAN     SUNNY     90  68  48 S29       29.70F HX  93
TAPACHULA        N/A    N/A N/A N/A MISG        N/A
TUX. GUTIERREZ MOSUNNY   88  55  33 S12G23    29.87F
VILLAHERMOSA   SUNNY     93  63  36 SW5       29.73F HX  94

CENTRAL AMERICA

CITY           SKY/WX    TMP DP  RH WIND       PRES   REMARKS
BELIZE CITY      N/A     88  73  62 SE9       29.76F HX  96
MANAGUA        PTCLDY    86  70  58 SE7       29.86F HX  90

CARIBBEAN

CITY           SKY/WX    TMP DP  RH WIND       PRES   REMARKS
ARUBA          MOSUNNY   84  72  65 E13       29.89F
CURACAO        MOSUNNY   81  73  78 NE8       29.92F
KINGSTON       MOSUNNY   82  68  61 SE12      29.92F
NASSAU         MOSUNNY   77  64  65 S3        29.95F
SAN JUAN       MOSUNNY   81  66  61 N10       29.95F
SANTO DOMINGO  MOSUNNY   81  68  65 S6        29.92F
ST. CROIX      MOSUNNY   81  63  54 CALM      29.95F
ST. KITTS      MOSUNNY   79  63  57 NE5       29.94S
ST. MAARTEN    MOSUNNY   81  66  61 W6        29.92F
ST. THOMAS     PTSUNNY   81  68  65 N8        29.94F

$$





USA.gov is the U.S. government's official web portal to all federal, state and local government web resources and services.